Wetbulb
45.89 45.78 45.75 46.21 46.49 46.52 41.81 38.01 30.84 39.74 41.84 30.08 27.45 24.89 31.45 37.04 34.79 36.41 34.05 32.91 31.31 26.36 27.26 28.47 27.93 28.36 32.96 38.55 38.33 34.17 38.29 33.58 27.39 31.37 37.35 40.64 37.37 32.90 32.46 24.02 25.32 30.60 25.87 22.84
45.26 45.74 46.08 46.22 46.34 45.95 39.68 34.99 33.46 39.41 39.51 25.04 23.22 30.29 33.45 35.16 33.23 33.04 31.99 29.91 31.86 30.32 22.36 20.97 24.69 29.64 37.13 38.04 36.50 35.10 38.10 33.36 25.88 28.86 34.84 38.34 34.91 36.05 36.06 34.81 33.81 27.45 24.35 23.78
45.10 45.94 45.90 46.46 46.42 45.56 39.86 34.48 27.26 32.19 35.17 31.78 29.14 28.55 29.60 29.56 34.43 32.87 33.34 31.44 30.21 26.52 21.47 28.18 23.99 28.27 35.08 37.56 37.43 42.02 40.30 34.39 30.20 25.03 29.32 33.86 33.03 35.08 36.38 34.10 26.93 25.81 25.34 25.16
45.50 45.66 45.63 45.87 46.06 45.83 39.14 32.71 28.33 32.21 24.46 27.62 28.88 30.17 31.14 27.89 27.05 32.01 32.15 27.97 28.96 25.68 17.43 22.12 23.37 27.90 32.58 35.45 38.63 36.33 37.44 30.56 31.32 30.98 32.71 32.23 32.56 35.74 34.62 31.88 31.50 25.64 25.57 24.05
44.64 45.04 45.23 45.58 45.75 44.99 37.78 30.94 31.01 29.96 29.88 32.21 29.51 29.85 28.83 27.48 28.15 28.42 26.70 27.33 30.32 28.59 26.11 26.17 24.69 28.29 30.95 30.14 34.64 33.71 36.30 31.00 32.03 28.89 31.20 29.35 27.06 29.67 31.65 30.46 29.11 27.79 26.45 23.58
44.56 44.54 44.85 45.28 45.44 43.64 36.88 36.40 35.79 31.85 29.82 27.87 26.29 26.44 28.52 28.28 30.48 32.32 33.22 30.73 28.84 27.90 29.63 32.36 33.75 34.05 33.96 34.49 32.23 31.90 32.21 31.02 30.28 26.77 31.56 30.73 22.61 26.93 28.40 28.79 30.91 31.75 24.53 26.11
44.18 43.85 44.68 45.04 45.34 44.15 39.32 37.24 34.89 29.69 25.16 27.91 27.69 31.77 30.96 30.37 31.49 29.76 32.62 32.02 29.37 34.04 36.51 36.29 35.77 34.48 34.41 35.33 35.74 35.55 32.88 31.93 30.72 27.14 29.72 17.83 26.78 31.75 32.00 28.49 29.62 31.25 28.50 27.87
43.79 43.78 44.56 45.06 45.34 45.01 40.30 38.57 34.90 30.95 25.99 29.65 31.23 31.63 31.05 30.79 31.54 30.27 32.09 32.71 34.54 35.17 33.92 30.75 28.48 28.09 29.78 33.20 35.66 34.36 35.65 32.83 29.89 25.86 23.10 26.47 27.11 27.98 27.71 27.68 26.32 31.10 29.70 29.62
44.32 43.88 44.39 44.91 45.23 45.29 40.80 38.78 38.00 33.88 29.04 28.52 34.31 29.75 30.65 26.94 26.63 27.93 30.83 35.07 35.26 34.10 29.33 26.76 24.23 23.62 27.39 26.93 29.88 35.51 34.16 33.62 31.09 28.61 21.96 18.27 24.85 28.65 33.09 32.38 21.81 31.59 29.72 28.19
44.58 43.98 44.17 44.94 45.41 45.53 40.81 38.22 38.68 34.49 29.02 32.63 33.06 28.71 28.39 30.95 28.60 26.86 28.43 30.45 31.27 31.91 23.76 24.05 23.61 24.69 31.74 24.08 25.45 27.48 27.60 28.26 24.50 25.99 22.80 23.99 27.07 30.56 35.37 23.38 22.70 32.82 29.69 27.97
44.12 43.93 44.51 44.94 45.74 45.58 41.00 38.19 39.89 35.54 29.38 31.49 36.03 36.66 31.34 30.96 29.27 23.44 28.28 25.46 28.55 26.31 22.99 24.22 24.02 24.26 28.28 29.55 29.88 28.78 25.28 24.36 22.84 24.88 20.23 17.98 30.15 30.15 25.90 29.55 31.47 32.54 31.80 29.65
44.37 44.29 45.01 45.67 45.77 45.39 42.97 37.30 40.79 38.77 32.57 31.01 36.12 37.37 37.77 37.14 35.31 30.94 32.25 32.78 30.57 29.57 24.10 28.20 25.86 24.45 26.96 26.94 21.46 32.32 23.87 26.74 24.15 25.03 22.99 29.54 31.36 30.53 32.54 31.79 27.24 26.95 29.74 30.98
44.35 44.51 44.68 44.77 45.44 45.11 42.98 37.58 37.17 35.02 29.96 30.49 32.83 34.64 38.90 39.55 38.47 37.92 30.15 31.58 34.78 31.71 32.68 30.02 28.47 24.88 28.62 24.07 24.95 28.65 30.85 33.01 26.15 25.66 28.88 29.37 30.29 30.35 29.66 28.86 26.82 27.57 28.56 27.31
44.01 44.50 44.66 45.25 44.90 44.34 41.77 36.77 37.19 35.07 31.79 28.80 33.86 40.30 37.35 41.07 39.98 38.30 37.09 35.74 35.45 33.46 31.51 28.16 27.29 26.29 32.18 27.63 29.39 26.27 28.29 30.45 25.33 26.40 29.11 29.91 30.60 29.25 28.60 27.55 27.45 26.77 27.44 25.86
44.18 43.63 44.20 44.41 44.78 43.96 40.31 38.07 37.70 37.48 32.29 25.61 29.46 37.24 40.63 40.79 39.53 38.33 37.35 35.93 32.51 29.42 27.85 25.30 25.63 29.30 29.74 29.64 29.92 26.38 29.73 28.54 25.53 23.07 28.99 28.57 28.96 29.36 28.56 25.68 24.91 25.40 24.42 23.12
43.70 43.59 43.51 43.88 43.98 41.65 35.52 29.52 35.92 39.04 35.77 28.45 24.19 33.48 36.66 40.14 37.88 36.77 35.39 34.85 32.26 30.32 28.73 27.34 28.61 33.20 28.49 23.88 23.24 29.81 31.63 32.87 33.48 30.87 33.25 31.77 31.53 28.16 27.30 24.73 24.60 24.84 23.69 23.42
43.34 43.26 42.88 42.87 42.64 37.77 32.77 30.68 40.60 41.19 36.75 30.04 21.83 29.99 37.69 40.09 38.12 37.24 32.73 33.00 31.21 30.31 28.99 28.34 28.00 29.38 29.38 18.52 22.00 29.71 31.56 32.19 32.18 32.28 31.38 28.78 29.71 24.74 26.20 25.71 24.81 24.33 21.92 22.42
43.16 42.85 42.14 42.63 42.29 39.32 34.95 41.33 44.39 41.85 34.65 33.24 24.40 25.61 29.36 35.05 29.07 27.72 31.64 29.50 29.89 29.53 28.22 28.61 28.70 28.97 27.43 21.94 28.21 30.73 31.86 31.89 31.64 31.56 31.71 27.69 27.42 25.92 24.39 24.28 23.01 21.29 20.19 20.31
42.81 42.56 41.49 37.37 34.79 30.70 36.20 43.10 43.99 41.06 35.40 29.97 22.18 22.27 18.75 33.05 32.38 30.19 29.81 30.44 20.66 28.66 25.30 27.33 27.69 23.74 20.52 28.89 28.53 28.35 30.94 30.73 29.70 29.01 27.33 26.67 24.26 22.61 22.35 21.91 20.89 19.28 18.62 18.53
42.19 36.90 32.14 28.14 32.81 41.38 42.95 37.45 34.64 33.51 35.89 34.90 29.03 26.72 29.34 30.58 26.80 24.65 24.51 25.70 23.13 21.43 25.36 28.37 23.02 24.35 28.34 30.38 32.89 31.80 30.24 29.83 28.85 24.41 22.30 22.81 21.76 21.50 21.23 20.51 20.28 19.09 17.90 17.29
34.23 31.00 31.81 36.79 42.68 38.81 35.16 30.14 29.31 30.27 28.67 31.26 30.31 28.09 24.24 31.31 23.57 23.26 25.78 22.26 22.83 20.97 24.03 22.50 19.01 23.87 23.10 27.95 27.82 28.63 29.92 29.27 28.40 27.00 25.82 25.44 23.80 21.07 19.73 19.08 19.21 18.39 17.11 14.81
34.34 36.63 40.07 39.81 35.88 32.38 27.99 25.19 29.27 27.79 24.54 26.55 26.35 26.99 29.68 27.16 31.30 26.18 26.90 22.63 21.26 18.70 24.60 22.65 15.67 18.47 23.52 24.62 25.50 25.36 25.51 25.81 25.55 25.66 23.81 22.87 22.64 21.44 20.14 18.61 16.99 15.77 14.76 10.00
38.57 36.03 31.76 30.68 29.79 23.37 19.55 16.62 24.03 24.23 23.20 24.16 25.47 23.93 32.51 28.70 27.45 21.53 26.06 16.21 15.28 23.14 24.55 15.24 18.82 21.92 24.09 24.06 24.83 23.90 23.47 23.05 22.52 21.93 22.36 21.63 20.35 20.38 18.81 16.17 14.77 13.29 10.19 5.69
26.86 22.94 22.78 23.81 21.48 20.60 21.36 23.15 23.49 25.57 24.03 25.69 26.13 29.85 27.70 26.88 24.19 21.22 15.46 19.05 24.48 19.09 15.56 16.83 18.26 23.14 23.17 24.26 25.07 22.38 19.80 19.12 19.55 18.60 17.69 16.05 14.87 10.88 8.36 6.65 5.21 4.65 1.87 -5.13
25.61 28.10 21.21 23.31 23.60 24.76 29.94 30.58 31.11 30.67 26.42 26.69 25.56 24.87 25.56 20.13 22.07 26.11 19.24 17.85 18.23 17.96 15.79 17.85 17.43 22.88 22.73 21.44 19.98 16.92 15.53 13.13 12.78 11.10 10.19 7.23 6.16 6.91 0.93 -2.68 -2.15 0.18 -4.27 -5.96
27.68 25.25 21.75 26.76 28.16 28.17 29.42 30.80 31.74 31.68 25.83 25.62 27.21 22.95 18.00 18.05 20.15 22.41 19.79 18.63 13.50 16.18 16.43 16.78 21.01 21.50 20.18 18.59 17.50 15.30 14.34 13.23 10.63 9.07 8.99 7.46 5.67 6.57 5.80 1.39 0.32 -4.61 -2.87 -5.14
25.54 23.19 21.43 19.28 26.89 27.73 29.91 32.01 32.31 31.37 26.17 19.00 23.86 16.86 18.98 24.16 19.92 17.72 22.40 14.95 16.92 17.72 26.37 13.84 16.52 19.92 16.37 14.24 13.62 12.58 12.00 10.29 8.88 7.73 8.69 6.79 8.32 8.58 10.40 7.18 2.10 2.95 4.65 -2.25
MSLP
1011.82 1012.55 1013.49 1014.14 1014.39 1014.70 1015.51 1016.00 1016.95 1016.23 1016.21 1016.88 1017.80 1017.69 1016.74 1015.99 1015.72 1015.68 1016.41 1017.42 1018.39 1019.17 1019.17 1018.89 1018.06 1016.80 1015.75 1014.05 1013.44 1012.12 1011.43 1010.82 1009.78 1008.60 1007.76 1007.26 1006.94 1006.80 1006.91 1007.40 1008.03 1008.89 1010.33 1013.51
1012.10 1012.75 1013.21 1013.82 1014.37 1014.73 1015.55 1015.88 1016.87 1016.55 1016.35 1017.19 1017.87 1017.38 1016.58 1015.86 1015.69 1015.90 1016.57 1017.41 1018.31 1018.78 1019.30 1019.04 1018.37 1017.19 1014.70 1014.02 1013.41 1012.20 1011.28 1010.87 1009.92 1008.48 1007.84 1007.36 1007.57 1006.95 1007.18 1007.60 1008.51 1010.05 1011.74 1013.97
1012.42 1013.03 1013.47 1014.22 1014.30 1014.50 1015.07 1015.94 1017.12 1017.41 1017.17 1017.32 1017.35 1017.24 1016.63 1016.05 1015.73 1015.91 1016.36 1017.22 1017.89 1018.66 1018.95 1018.80 1018.27 1017.32 1014.95 1013.78 1013.01 1012.01 1011.38 1011.52 1010.71 1009.89 1009.44 1008.76 1008.03 1007.59 1007.95 1008.07 1009.99 1011.70 1013.23 1014.82
1012.85 1013.20 1013.62 1013.94 1014.34 1014.62 1014.93 1015.99 1016.73 1016.65 1017.44 1017.66 1017.49 1017.21 1016.57 1016.21 1016.08 1016.04 1016.51 1017.41 1017.80 1018.23 1018.87 1018.68 1018.19 1016.84 1015.52 1013.41 1012.76 1012.25 1012.08 1012.19 1011.62 1011.23 1010.68 1009.24 1008.79 1008.44 1009.51 1010.12 1011.73 1012.97 1015.05 1016.26
1012.83 1013.26 1013.98 1014.34 1014.45 1014.42 1015.22 1015.93 1016.28 1016.76 1017.00 1017.25 1017.49 1017.16 1016.77 1016.50 1016.40 1016.47 1016.67 1017.04 1017.30 1017.40 1018.01 1017.90 1017.12 1016.38 1015.57 1014.43 1012.95 1012.61 1012.02 1012.24 1012.01 1012.15 1011.95 1011.06 1010.82 1011.35 1011.94 1012.29 1013.82 1014.77 1016.00 1017.40
1013.33 1013.99 1014.42 1014.30 1014.35 1014.61 1015.04 1015.86 1016.07 1016.23 1017.50 1017.59 1017.55 1017.22 1016.78 1016.71 1016.58 1016.62 1016.52 1016.66 1016.88 1016.83 1016.56 1016.28 1015.49 1015.10 1014.82 1014.38 1014.12 1013.33 1012.39 1012.16 1012.29 1012.62 1012.48 1012.31 1013.32 1015.03 1014.58 1014.68 1015.22 1015.84 1016.87 1018.87
1013.85 1014.16 1014.31 1014.38 1014.32 1014.52 1014.61 1015.80 1016.35 1016.89 1018.05 1017.61 1017.14 1016.81 1016.81 1016.94 1016.82 1016.78 1016.63 1016.61 1016.59 1016.12 1015.57 1014.63 1013.82 1014.03 1013.94 1013.86 1013.20 1013.00 1012.49 1012.20 1012.27 1012.90 1013.17 1014.51 1016.84 1016.85 1016.82 1016.95 1017.54 1018.01 1018.79 1019.92
1013.78 1014.17 1014.43 1014.48 1014.59 1014.55 1014.65 1015.69 1016.51 1017.13 1018.01 1017.73 1017.27 1017.13 1017.21 1017.41 1017.26 1017.16 1016.91 1016.74 1016.49 1016.26 1015.83 1015.28 1014.69 1014.32 1013.93 1013.55 1013.33 1012.81 1012.58 1012.41 1012.75 1013.38 1014.54 1016.49 1017.27 1018.09 1018.34 1018.22 1019.29 1019.74 1020.09 1020.77
1013.91 1014.29 1014.64 1014.72 1014.74 1014.57 1014.91 1015.93 1016.27 1016.95 1017.69 1018.18 1017.71 1017.57 1017.73 1017.98 1017.94 1017.69 1017.37 1016.89 1016.54 1016.54 1016.67 1016.44 1016.40 1015.84 1015.22 1014.44 1013.78 1013.21 1013.16 1012.85 1013.18 1014.20 1015.40 1017.28 1018.71 1018.93 1018.96 1018.98 1020.14 1020.72 1021.03 1021.37
1014.09 1014.51 1014.75 1014.76 1014.64 1014.73 1015.20 1016.38 1016.45 1017.00 1018.18 1018.06 1017.74 1017.82 1017.87 1017.98 1018.21 1018.37 1018.42 1018.02 1017.53 1017.14 1017.63 1017.86 1017.72 1016.98 1016.16 1015.89 1015.51 1015.05 1014.64 1014.82 1015.30 1015.66 1016.83 1018.54 1019.76 1019.27 1018.96 1019.85 1021.85 1021.43 1021.68 1022.00
1014.18 1014.65 1014.91 1014.81 1014.79 1015.03 1015.38 1016.89 1016.74 1017.14 1018.27 1018.24 1017.93 1017.77 1017.71 1018.03 1018.25 1018.79 1018.56 1018.58 1018.45 1018.38 1018.72 1018.93 1018.59 1017.99 1017.25 1016.85 1016.74 1016.56 1016.69 1016.83 1017.30 1017.50 1018.45 1019.98 1020.34 1019.73 1020.38 1021.78 1022.12 1022.20 1022.42 1022.83
1014.47 1014.73 1014.89 1014.87 1015.08 1015.32 1015.55 1016.89 1017.03 1017.31 1018.21 1018.57 1018.29 1017.71 1017.42 1017.37 1017.65 1018.18 1018.39 1018.61 1018.81 1019.01 1019.41 1019.24 1019.01 1018.60 1018.02 1017.70 1017.56 1017.36 1017.85 1018.40 1018.81 1019.76 1020.71 1021.58 1021.79 1021.78 1022.10 1022.37 1022.77 1023.05 1023.14 1023.65
1014.42 1014.81 1014.92 1015.26 1015.36 1015.58 1015.83 1017.04 1017.60 1017.96 1018.78 1018.71 1018.16 1017.49 1017.23 1017.16 1017.48 1017.53 1018.28 1018.71 1018.48 1018.82 1019.13 1019.34 1019.30 1019.05 1018.61 1018.48 1018.46 1018.45 1018.79 1018.87 1019.61 1020.64 1021.63 1022.00 1022.48 1022.77 1022.89 1023.22 1023.65 1023.80 1023.91 1024.40
1014.68 1015.08 1015.35 1015.58 1015.65 1015.96 1016.17 1017.29 1017.94 1018.21 1019.04 1018.94 1018.32 1017.32 1017.03 1016.86 1017.14 1017.46 1017.81 1018.13 1018.39 1018.79 1019.31 1019.55 1019.51 1019.30 1018.83 1018.89 1018.90 1019.28 1019.75 1019.61 1020.23 1021.20 1021.94 1022.44 1022.93 1023.35 1023.74 1024.03 1024.25 1024.49 1024.82 1025.27
1014.87 1015.17 1015.58 1015.82 1016.15 1016.41 1016.94 1017.54 1018.13 1018.25 1018.97 1019.04 1018.78 1017.87 1017.19 1016.85 1017.11 1017.47 1017.74 1018.16 1018.72 1019.43 1019.75 1019.90 1019.84 1019.25 1019.21 1019.38 1019.58 1020.20 1020.34 1020.54 1020.66 1021.00 1021.38 1022.15 1023.18 1023.79 1024.29 1024.63 1025.05 1025.38 1025.60 1026.12
1015.17 1015.62 1015.99 1016.28 1016.66 1016.91 1017.32 1018.32 1018.56 1018.47 1018.70 1019.22 1019.12 1018.69 1017.79 1017.20 1017.34 1017.63 1017.96 1018.45 1019.04 1019.58 1019.99 1020.01 1019.62 1018.98 1019.16 1019.96 1020.60 1020.87 1020.82 1020.91 1020.93 1021.51 1021.81 1022.38 1023.26 1024.14 1024.77 1025.31 1025.87 1026.24 1026.47 1026.97
1015.55 1016.00 1016.40 1016.75 1017.11 1017.52 1017.99 1018.57 1018.58 1018.48 1018.82 1019.37 1019.72 1018.90 1017.94 1017.51 1017.60 1018.06 1018.72 1018.93 1019.44 1019.74 1020.06 1020.09 1019.83 1019.36 1019.47 1020.23 1020.86 1021.05 1021.26 1021.49 1021.76 1022.02 1022.54 1023.43 1023.81 1024.73 1025.36 1025.85 1026.56 1027.05 1027.55 1027.91
1015.87 1016.41 1016.75 1017.12 1017.51 1017.84 1018.32 1018.33 1018.24 1018.56 1018.99 1019.39 1019.76 1019.50 1018.90 1018.26 1018.71 1019.30 1019.42 1019.83 1019.94 1020.01 1020.16 1020.11 1020.00 1019.76 1019.94 1020.52 1020.84 1021.15 1021.49 1021.94 1022.34 1022.63 1022.88 1023.55 1024.34 1025.24 1026.12 1026.75 1027.28 1027.77 1028.28 1028.67
1016.19 1016.72 1017.18 1017.76 1018.21 1018.61 1018.69 1018.42 1018.44 1018.67 1019.33 1019.35 1019.88 1019.84 1019.46 1018.78 1019.13 1019.70 1019.99 1020.13 1020.66 1020.52 1020.47 1020.29 1020.31 1020.44 1020.36 1020.43 1020.76 1021.11 1021.49 1021.92 1022.60 1023.26 1023.80 1024.45 1025.10 1026.00 1026.74 1027.34 1027.92 1028.20 1028.81 1029.29
1016.64 1017.29 1017.84 1018.61 1018.63 1018.21 1018.36 1018.84 1019.11 1019.27 1019.28 1019.57 1019.68 1019.75 1019.51 1019.37 1019.94 1020.38 1020.85 1020.87 1021.07 1021.13 1020.66 1020.37 1020.51 1020.79 1020.55 1020.31 1020.39 1021.03 1021.62 1022.16 1022.79 1023.64 1024.64 1025.20 1025.86 1026.48 1027.15 1027.76 1028.31 1028.82 1029.48 1030.06
1017.13 1017.76 1018.02 1018.40 1018.23 1018.46 1018.75 1019.23 1019.43 1019.59 1019.84 1019.78 1019.56 1019.67 1019.66 1019.46 1020.09 1020.67 1021.00 1021.23 1021.41 1021.40 1021.12 1021.18 1021.36 1021.18 1020.96 1020.93 1021.15 1021.55 1021.94 1022.53 1023.10 1023.60 1024.26 1024.93 1025.66 1026.68 1027.65 1028.60 1029.22 1029.86 1030.46 1031.13
1016.97 1017.35 1017.67 1017.96 1018.44 1018.79 1019.15 1019.32 1019.36 1019.52 1019.44 1019.51 1019.56 1019.53 1019.41 1019.53 1019.64 1020.39 1021.14 1021.45 1021.81 1021.63 1021.44 1021.79 1021.90 1021.21 1021.28 1021.56 1021.87 1022.41 1022.76 1023.22 1023.82 1024.27 1024.97 1025.85 1026.68 1027.47 1028.33 1029.24 1030.03 1030.77 1031.47 1032.22
1017.27 1017.42 1017.83 1018.11 1018.81 1018.99 1019.16 1018.86 1018.99 1019.21 1018.80 1019.17 1019.21 1019.55 1019.08 1019.70 1020.07 1020.88 1021.24 1021.74 1022.13 1021.62 1021.97 1022.21 1021.52 1021.41 1021.83 1022.23 1022.53 1023.22 1023.77 1024.24 1024.81 1025.55 1026.13 1026.86 1027.73 1028.33 1029.08 1030.03 1030.89 1031.63 1032.39 1033.02
1017.87 1017.92 1018.20 1018.23 1018.54 1018.46 1018.07 1017.88 1017.98 1018.01 1018.05 1018.58 1018.82 1019.38 1019.31 1020.11 1020.76 1021.53 1021.99 1022.14 1021.99 1022.26 1022.64 1022.16 1021.20 1021.38 1022.13 1022.74 1023.19 1023.76 1024.78 1025.35 1025.90 1026.62 1027.32 1027.97 1028.67 1029.63 1030.34 1030.89 1031.53 1032.25 1033.25 1033.53
1018.10 1018.23 1018.53 1018.48 1018.17 1017.98 1017.71 1017.63 1017.77 1017.86 1017.94 1018.30 1019.11 1019.66 1019.98 1020.86 1021.24 1021.48 1021.98 1022.27 1022.35 1022.28 1022.17 1021.41 1021.20 1021.71 1022.42 1023.27 1023.99 1024.73 1025.62 1026.44 1027.11 1027.61 1028.28 1029.01 1029.70 1030.46 1031.38 1031.70 1032.08 1032.60 1033.21 1033.78
1018.75 1018.96 1018.98 1018.65 1018.29 1017.88 1017.83 1017.65 1017.68 1017.85 1017.89 1018.15 1018.82 1020.09 1020.55 1021.14 1021.27 1021.69 1021.96 1022.33 1022.22 1021.51 1021.68 1021.55 1021.82 1022.41 1023.13 1023.90 1024.69 1025.44 1026.13 1026.85 1027.61 1028.32 1028.97 1029.69 1030.38 1030.88 1031.50 1032.05 1032.52 1032.96 1033.40 1033.80
1019.23 1019.44 1019.28 1019.08 1018.81 1018.46 1018.07 1017.74 1017.67 1017.70 1017.96 1019.05 1019.35 1020.21 1020.66 1020.92 1021.44 1021.78 1021.54 1021.53 1021.01 1020.96 1021.59 1022.19 1022.55 1022.97 1023.63 1024.51 1025.27 1025.99 1026.69 1027.45 1028.17 1028.88 1029.59 1030.23 1030.64 1031.09 1031.66 1032.33 1032.54 1032.93 1033.22 1033.46
Wind_Speed
21 20 18 14 12 10 5 4 2 2 2 4 2 3 4 2 3 3 3 3 4 6 2 4 3 4 6 8 13 10 3 4 5 5 11 7 3 5 5 4 3 3 4 4
18 17 15 12 10 11 4 4 3 2 3 4 0 3 0 3 2 2 3 2 5 2 3 2 4 6 8 13 10 4 3 2 7 3 2 4 4 3 4 6 2 4 0 4
17 16 14 12 8 8 3 4 3 3 3 1 5 3 1 2 1 2 3 3 3 2 2 3 5 5 8 15 5 13 1 3 6 5 4 7 5 5 9 7 5 3 5 6
16 15 13 10 7 7 4 3 2 4 3 2 3 2 2 2 1 1 2 2 2 3 2 4 5 4 8 9 4 7 3 5 11 20 16 20 16 4 11 15 9 5 6 7
14 13 11 9 6 6 3 4 4 3 3 4 5 1 4 3 2 3 3 1 5 3 4 8 7 4 2 7 8 6 3 1 3 7 11 26 24 24 18 22 15 12 10 10
15 12 10 8 5 2 2 0 2 4 2 3 4 4 4 4 2 1 2 1 2 2 9 8 17 12 9 9 6 4 4 3 2 4 6 7 15 17 17 17 17 5 6 6
16 12 9 6 5 2 3 2 3 4 1 3 4 4 3 0 0 2 1 2 1 5 9 14 5 5 8 8 7 10 6 5 2 1 2 7 2 11 10 20 16 12 12 9
15 13 9 7 6 4 4 3 3 3 3 1 5 5 3 2 4 4 1 3 3 8 6 5 5 5 5 1 5 8 6 1 2 3 6 5 4 8 7 7 10 12 9 8
13 13 10 8 7 8 4 3 2 4 6 2 1 3 2 1 2 5 3 5 4 5 3 4 3 3 4 5 9 5 6 12 3 2 4 3 4 12 9 6 6 9 9 9
15 13 10 8 8 8 5 3 2 4 4 2 2 2 3 2 2 0 4 6 7 4 4 4 3 2 4 4 5 6 6 4 7 4 4 4 11 12 4 1 1 5 7 9
14 12 10 8 9 9 5 1 3 4 3 2 1 1 2 1 3 3 4 5 4 4 5 2 2 2 2 2 2 4 5 4 4 3 4 3 14 2 3 6 5 5 7 8
15 13 10 9 10 9 5 3 2 2 4 3 2 4 3 4 6 5 2 2 1 2 3 1 2 2 3 2 3 5 5 3 2 5 4 4 6 10 7 4 4 3 5 10
14 12 12 10 11 7 6 3 1 4 3 4 3 3 4 3 4 4 4 3 1 2 3 1 1 2 1 2 1 2 2 1 4 3 4 7 7 6 7 9 8 7 9 10
14 13 12 11 12 10 7 4 1 4 3 3 1 3 1 2 5 3 3 3 3 3 2 1 0 1 1 1 1 3 1 3 3 4 7 7 8 5 6 9 9 11 10 9
15 14 12 12 12 13 7 3 2 2 4 4 2 4 3 1 4 5 3 3 3 2 2 2 1 1 2 2 3 2 2 1 1 2 7 5 5 5 7 8 7 7 10 10
15 14 13 12 11 7 4 4 3 1 2 4 2 3 3 1 2 3 2 2 2 2 2 2 3 3 3 3 1 1 3 5 1 3 4 9 9 8 6 9 8 8 9 8
16 13 12 11 9 4 4 4 1 3 2 3 3 1 1 2 3 3 3 3 1 2 1 1 1 2 4 3 2 6 5 6 8 11 12 6 5 5 8 11 10 11 9 8
16 13 12 11 10 6 4 2 1 4 3 2 2 2 3 2 2 2 1 2 3 3 1 2 1 2 2 1 3 9 9 9 6 4 5 6 11 12 10 9 8 9 8 7
17 17 12 5 4 2 1 1 6 2 3 1 3 4 4 2 2 1 2 1 2 2 0 2 3 2 2 2 9 9 11 9 9 10 11 10 12 10 8 8 7 8 7 6
19 5 4 2 3 4 7 3 2 3 1 1 2 1 2 3 2 2 2 2 1 1 3 2 2 3 2 3 9 8 8 8 10 11 7 8 8 8 6 6 5 6 6 6
3 3 2 1 7 2 2 2 1 2 2 3 3 4 3 2 3 3 2 2 1 1 4 3 2 3 3 3 7 5 7 8 7 5 5 6 9 10 9 8 8 7 7 5
5 3 3 2 2 2 2 3 2 4 5 3 5 4 4 1 2 3 0 2 3 2 1 2 4 4 5 7 10 8 8 9 7 6 11 10 10 9 9 8 7 6 6 6
3 2 3 3 1 3 6 6 4 3 4 4 3 1 3 2 4 3 1 3 4 1 1 4 5 5 5 7 9 9 7 9 10 10 9 11 10 9 9 8 6 7 6 3
2 3 4 3 3 4 5 3 4 4 3 4 3 3 3 1 4 1 4 4 1 2 2 6 4 8 9 8 7 11 8 7 9 9 8 8 8 6 5 5 5 6 5 3
3 1 3 3 3 2 1 1 2 1 3 4 4 4 3 2 4 1 2 2 3 5 6 5 3 9 10 8 6 8 8 7 7 5 6 7 7 7 5 3 4 5 4 4
2 1 2 2 1 1 2 1 2 1 3 2 4 3 4 1 4 3 4 2 6 6 4 3 5 9 8 7 7 6 7 8 7 6 7 6 7 7 6 3 2 3 4 4
1 2 1 2 1 2 2 1 1 2 4 3 3 5 6 2 2 2 4 6 5 3 2 1 3 10 9 7 7 7 7 7 7 5 5 5 5 5 5 4 4 4 4 4
Wind_Direction
144 144 155 156 154 147 108 122 106 315 78 73 60 152 197 186 133 80 108 137 183 203 243 289 316 251 274 297 311 299 249 270 282 286 279 286 206 225 169 130 257 69 112 91
136 142 137 142 156 173 157 99 122 334 89 123 319 274 210 133 145 147 149 206 189 204 183 28 202 263 269 290 316 306 320 321 300 281 351 94 288 316 90 112 121 53 159 96
141 140 136 147 150 156 110 101 94 349 50 88 135 152 90 104 308 195 176 196 90 58 323 234 273 277 294 316 273 315 279 303 276 265 330 255 239 197 58 97 65 52 40 86
144 135 131 131 146 165 92 33 190 175 198 291 154 132 122 136 47 298 78 7 180 163 335 307 225 265 299 299 309 345 95 357 44 45 16 51 47 127 115 95 75 46 72 79
139 129 140 143 143 137 96 126 123 42 121 127 130 73 192 170 302 184 310 123 292 200 227 201 278 226 230 259 327 334 329 322 323 45 37 46 48 42 62 79 91 93 102 74
147 150 148 129 140 131 107 34 46 99 339 108 100 211 173 205 227 63 85 276 284 233 240 238 263 256 245 257 301 289 300 315 352 45 4 309 49 29 47 55 38 44 61 80
157 152 139 128 110 131 118 109 99 90 158 141 185 170 169 132 176 208 351 2 15 258 305 294 251 222 223 227 284 219 302 345 64 92 265 44 63 18 47 63 46 60 87 97
151 148 144 126 120 99 85 107 103 104 95 76 50 75 85 356 346 18 285 289 259 304 310 3 6 349 15 105 65 22 0 302 90 70 57 122 59 14 341 18 49 37 57 159
147 148 147 134 124 109 83 72 101 93 115 308 300 92 39 150 325 345 311 307 310 13 51 45 52 23 332 325 337 355 3 14 83 85 74 89 47 333 322 295 59 34 41 34
149 149 145 139 121 98 95 73 59 89 104 273 85 142 175 126 91 222 310 335 344 6 24 60 40 347 321 7 8 337 345 11 32 15 98 96 356 322 311 315 56 76 67 53
149 152 151 131 122 115 83 99 20 106 109 282 19 6 124 70 82 127 274 36 341 11 56 62 330 11 2 351 50 343 23 348 20 341 66 50 353 45 74 101 68 64 97 88
154 147 138 122 125 110 101 87 14 44 91 197 287 264 234 177 180 147 295 120 137 172 70 306 76 1 355 350 8 9 43 40 56 17 82 76 13 54 51 72 97 43 108 118
146 145 133 120 115 100 99 102 37 59 63 349 33 4 0 128 212 159 115 317 221 47 167 251 207 53 47 19 0 89 85 70 87 139 112 109 92 46 48 82 75 61 77 99
144 142 129 120 103 96 86 94 107 85 109 118 227 338 44 113 144 159 155 157 52 82 80 113 188 111 47 323 113 94 317 351 123 83 117 109 94 81 84 89 82 77 78 81
141 133 131 119 107 97 85 81 54 93 125 167 260 305 327 155 141 164 136 87 80 61 34 41 263 256 85 10 65 44 7 1 74 202 144 103 115 108 111 89 85 89 98 83
140 139 136 125 117 93 64 45 345 3 92 88 108 302 281 205 129 128 95 87 92 100 130 253 275 257 104 95 121 75 77 26 351 120 74 103 116 106 108 103 97 91 91 93
140 135 129 122 99 64 82 153 93 162 82 81 26 23 4 356 42 52 42 36 72 114 145 257 251 310 78 95 167 144 115 98 95 108 107 89 124 136 120 112 101 91 78 75
136 123 119 117 94 70 40 337 301 134 86 83 98 292 18 353 51 31 26 32 19 357 191 338 234 355 66 119 164 143 131 123 110 92 85 112 109 115 114 114 118 105 99 94
124 116 99 69 48 81 194 315 80 59 106 108 94 140 218 1 101 89 13 98 23 283 275 261 85 326 217 190 174 162 158 163 146 114 111 114 119 119 120 122 120 116 112 99
122 68 58 94 230 201 130 37 60 32 350 341 234 286 160 113 40 326 60 351 176 50 257 54 79 243 186 292 177 157 156 137 131 123 131 126 129 136 126 113 100 107 114 109
67 112 122 76 146 79 51 119 177 133 210 197 209 185 148 276 111 201 183 190 289 26 270 120 292 261 202 102 104 128 139 143 160 121 122 141 144 141 137 133 129 126 117 106
157 138 113 106 109 110 137 186 159 207 221 189 167 205 193 268 115 101 278 109 36 243 300 79 281 250 140 129 122 108 112 116 110 133 128 123 130 132 130 132 127 111 110 114
47 88 128 146 135 150 178 196 186 216 191 190 163 153 159 59 49 54 113 76 231 5 40 236 231 176 143 137 126 109 99 106 108 107 108 113 116 118 129 127 122 127 116 113
95 116 122 169 176 223 202 182 185 233 133 143 125 83 111 125 55 111 84 243 9 321 235 243 219 172 156 156 146 131 138 124 121 115 116 117 114 110 97 119 134 132 145 162
71 36 170 189 236 227 214 224 275 10 165 113 83 54 86 11 89 171 84 33 252 204 231 237 205 159 154 152 136 133 136 134 132 134 123 126 130 133 133 170 140 120 121 139
52 108 31 292 225 159 136 284 151 166 156 85 61 107 66 287 137 135 207 190 227 248 228 243 145 152 151 147 146 144 144 147 139 131 135 134 143 151 157 128 136 167 157 182
323 315 224 147 234 317 289 358 328 112 74 139 118 97 191 135 98 237 191 209 221 230 261 225 188 166 156 136 133 142 140 134 132 128 136 138 127 119 119 169 236 206 208 202